Погода в Сенном

Россия / Саратовская область     52°09′26″N   46°57′48″E
темп.,
°C
ветер,
м/с
пор.,
м/с
влажн.,
%
обл.,
%
осадки,
мм/ч
давл.,
гПа
погр.,
м
25 июня, сб
сб2501:00+18св6146998 0.0 1009752
04:00+16ссв61478100 0.0 1010548
07:00+17ссв6147798 0.0 1011563
10:00+22св7105887 0.0 1012955
13:00+24св785078 0.0 10121547
16:00+25св784810 0.0 10121865
19:00+24ссв486261 0.0 1013464
22:00+18с3479100 0.0 101460
26 июня, вс
вс2601:00+17с34800 0.0 101551
04:00+15с33830 0.0 101542
07:00+18с25740 0.0 1016196
10:00+23ссв57530 0.0 10171282
13:00+24ссв67460 0.0 10171788
16:00+23ссв67420 0.0 10171714
19:00+21св58570 0.0 1018504
22:00+15св22734 0.0 101919
27 июня, пн
пн2701:00+14ссз22760 0.0 102013
04:00+12ссз22790 0.0 102012
07:00+16с23700 0.0 1021147
10:00+21ссз23520 0.0 1020830
13:00+24сз33460 0.0 10191258
16:00+26зсз45490 0.0 10171487
19:00+25з58630 0.0 1016472
22:00+19з3692100 3.8 1016109
28 июня, вт
вт2801:00+18зсз33924 0.3 101545
04:00+17с33920 0.3 101452
07:00+18св59881 0.0 1016477
10:00+19ссв68580 0.0 1017968
13:00+21ссв67480 0.0 10181708
16:00+21ссв67445 0.0 10182145
19:00+19ссв465510 0.0 1019638
22:00+15св376274 0.0 1020408
29 июня, ср
ср2901:00+10ссв22770 0.0 102114
04:00+9ссз22800 0.0 102215
07:00+12с24690 0.0 1022231
10:00+17с46484 0.0 10221578
13:00+19ссв46415 0.0 10212059
16:00+20с564251 0.0 10202169
19:00+18св565920 0.0 1020776
22:00+13ссв11730 0.0 102110